FW8459 Weather Reports


time (UTC)temp
F
wind
direction
speed
knots
gust
knots
rain 1hr
in
rain 24hr
in
rain mn
in
humidity
%
barometer
mb
20260903071917 57 216 0.9 0.9 0.00 0.07 0.07 72 1018.2
20260903071413 58 193 0.9 1.7 0.00 0.07 0.07 71 1018.0
20260903070909 58 222 1.7 1.7 0.00 0.07 0.07 71 1017.9
20260903070403 59 201 1.7 1.7 0.00 0.07 0.07 70 1018.1
20260903065858 59 238 2.6 2.6 0.00 0.07 0.07 69 1017.6
20260903065357 59 221 2.6 2.6 0.00 0.07 0.07 68 1017.8
20260903064856 59 233 0.9 0.9 0.00 0.07 0.07 69 1017.7
20260903064352 60 178 2.6 4.3 0.00 0.07 0.07 68 1017.7
20260903063848 60 53 2.6 4.3 0.00 0.07 0.07 67 1017.8
20260903063343 60 245 2.6 2.6 0.00 0.07 0.07 66 1017.7
20260903062838 60 114 0.9 0.9 0.00 0.07 0.07 68 1017.5
20260903062338 60 178 1.7 2.6 0.00 0.07 0.07 68 1017.4
20260903061835 60 168 1.7 2.6 0.00 0.07 0.07 66 1017.6
20260903061333 60 238 0.9 1.7 0.00 0.07 0.07 67 1017.2
20260903060830 61 218 3.5 4.3 0.00 0.07 0.07 66 1017.1
20260903060329 61 199 3.5 4.3 0.00 0.07 0.07 65 1017.2
20260903055827 61 242 2.6 5.2 0.00 0.07 0.07 65 1017.1
20260903055325 62 327 2.6 2.6 0.00 0.07 0.07 64 1017.1
20260903054821 62 220 2.6 4.3 0.00 0.07 0.07 63 1017.1
20260903054320 62 272 3.5 6.1 0.00 0.07 0.07 63 1017.0
20260903053817 62 198 3.5 5.2 0.00 0.07 0.07 63 1016.8
20260903053312 63 241 2.6 2.6 0.00 0.07 0.07 63 1016.8
20260903052808 63 271 1.7 1.7 0.00 0.07 0.07 64 1017.1
20260903052306 63 257 4.3 7.0 0.00 0.07 0.07 62 1017.1
20260903051759 63 227 0.9 1.7 0.00 0.07 0.07 63 1016.7
20260903051254 63 287 2.6 4.3 0.00 0.07 0.07 62 1017.1
20260903050749 63 234 3.5 5.2 0.00 0.07 0.07 61 1017.0
20260903050248 64 226 3.5 4.3 0.00 0.07 0.07 60 1017.0
20260903045743 64 194 4.3 5.2 0.00 0.07 0.07 60 1017.0
20260903045239 64 230 2.6 2.6 0.00 0.07 0.07 61 1016.8
20260903044735 64 297 1.7 5.2 0.00 0.07 0.07 61 1016.6
20260903044230 64 222 1.7 2.6 0.00 0.07 0.07 62 1017.1
20260903043727 64 219 5.2 6.1 0.00 0.07 0.07 61 1017.0
20260903043227 64 249 2.6 4.3 0.00 0.07 0.07 61 1016.6
20260903042726 65 190 2.6 4.3 0.00 0.07 0.07 62 1016.4
20260903042221 65 218 3.5 4.3 0.00 0.07 0.07 62 1016.7
20260903041717 65 240 2.6 2.6 0.00 0.07 0.07 61 1016.3
20260903041213 64 171 4.3 4.3 0.00 0.07 0.07 62 1016.6
20260903040713 64 181 5.2 8.7 0.00 0.07 0.07 62 1016.3
20260903040208 65 208 4.3 5.2 0.00 0.07 0.07 61 1016.4
20260903035704 65 207 4.3 5.2 0.00 0.07 0.07 60 1016.6
20260903035200 64 215 2.6 4.3 0.00 0.07 0.07 62 1016.8
20260903034659 65 186 2.6 2.6 0.00 0.07 0.07 61 1016.6
20260903034154 64 207 0.0 0.9 0.00 0.07 0.07 64 1016.4
20260903033650 63 196 4.3 6.1 0.00 0.07 0.07 65 1016.6
20260903033149 62 293 1.7 2.6 0.00 0.07 0.07 65 1016.6
20260903032645 63 227 2.6 4.3 0.00 0.07 0.07 65 1016.6
20260903032140 64 234 3.5 4.3 0.00 0.07 0.07 63 1016.6
20260903031636 65 243 1.7 1.7 0.00 0.07 0.07 62 1016.7
20260903031130 66 222 4.3 6.1 0.00 0.07 0.07 60 1016.6
20260903030626 64 203 1.7 2.6 0.00 0.07 0.07 63 1016.6
20260903030122 65 74 4.3 6.1 0.00 0.07 0.07 60 1016.5
20260903025616 64 247 3.5 6.1 0.00 0.07 0.07 62 1016.6
20260903025112 64 257 4.3 5.2 0.00 0.07 0.07 64 1016.8
20260903024607 66 237 3.5 5.2 0.00 0.07 0.07 63 1016.8
20260903024101 66 196 3.5 4.3 0.00 0.07 0.07 62 1016.7
20260903023557 65 199 3.5 5.2 0.00 0.07 0.07 64 1016.6
20260903023052 64 195 3.5 4.3 0.00 0.07 0.07 65 1016.6
20260903022551 64 219 1.7 1.7 0.00 0.07 0.07 65 1016.5
20260903022050 63 248 2.6 5.2 0.00 0.07 0.07 67 1016.5
20260903021545 63 236 6.1 7.8 0.00 0.07 0.07 67 1016.7
20260903021039 64 194 4.3 6.1 0.00 0.07 0.07 66 1016.6
20260903020536 63 189 2.6 2.6 0.00 0.07 0.07 67 1016.4
20260903020035 62 234 2.6 2.6 0.00 0.07 0.07 72 1016.5
20260903015531 63 234 1.7 1.7 0.00 0.07 0.07 72 1016.5
20260903015026 64 264 2.6 4.3 0.00 0.07 0.07 67 1016.3
20260903014525 64 142 4.3 5.2 0.00 0.07 0.07 66 1016.4
20260903014020 63 207 3.5 4.3 0.00 0.07 0.07 69 1016.5
20260903013519 64 207 3.5 5.2 0.00 0.07 0.07 67 1016.6
20260903013014 64 188 5.2 6.1 0.00 0.07 0.07 67 1016.4
20260903012514 64 242 2.6 2.6 0.00 0.07 0.07 68 1016.5
20260903012013 64 171 3.5 4.3 0.00 0.07 0.07 68 1016.2
20260903011507 64 237 5.2 7.8 0.00 0.07 0.07 68 1016.1
20260903011002 64 235 2.6 4.3 0.00 0.07 0.07 69 1016.3
20260903010457 64 210 2.6 5.2 0.00 0.07 0.07 70 1016.2
20260903005955 64 201 1.7 1.7 0.00 0.07 0.07 70 1016.4
20260903005450 64 181 2.6 4.3 0.00 0.07 0.07 71 1016.3
20260903004946 63 259 4.3 5.2 0.00 0.07 0.07 73 1016.1
20260903004441 62 182 1.7 2.6 0.00 0.07 0.07 76 1016.3
20260903003937 61 291 3.5 5.2 0.00 0.07 0.07 77 1016.1
20260903003437 62 242 4.3 6.1 0.00 0.07 0.07 74 1016.2
20260903002932 64 186 1.7 1.7 0.00 0.07 0.07 71 1016.2
20260903002427 63 29 2.6 2.6 0.00 0.07 0.07 73 1016.2
20260903001927 62 203 4.3 6.1 0.00 0.07 0.07 74 1016.3
20260903001426 64 221 5.2 7.8 0.00 0.07 0.07 71 1016.1
20260903000926 63 207 2.6 4.3 0.00 0.07 0.07 72 1016.1
20260903000421 64 183 4.3 6.1 0.00 0.07 0.07 71 1016.1
20260902235920 62 270 3.5 5.2 0.00 0.07 0.07 73 1016.1
20260902235415 65 230 4.3 5.2 0.00 0.07 0.07 69 1015.8
20260902234915 66 262 3.5 5.2 0.00 0.07 0.07 66 1015.6
20260902234410 66 179 2.6 4.3 0.00 0.07 0.07 67 1015.5
20260902233909 66 224 5.2 7.0 0.00 0.07 0.07 66 1015.3
20260902233403 66 260 4.3 6.1 0.00 0.07 0.07 64 1015.0
20260902232902 67 245 5.2 6.1 0.00 0.07 0.07 61 1015.0
20260902232357 66 195 3.5 6.1 0.00 0.07 0.07 59 1014.9
20260902231856 66 148 3.5 5.2 0.00 0.07 0.07 61 1014.8
20260902231352 67 277 1.7 2.6 0.00 0.07 0.07 61 1014.5
20260902230846 66 231 1.7 1.7 0.00 0.07 0.07 63 1014.7
20260902230346 66 213 2.6 5.2 0.00 0.07 0.07 63 1014.5
20260902225840 66 205 1.7 2.6 0.00 0.07 0.07 63 1014.5
20260902225335 66 216 1.7 4.3 0.00 0.07 0.07 63 1014.6
20260902224833 65 248 2.6 2.6 0.00 0.07 0.07 65 1014.6
20260902224328 65 229 1.7 1.7 0.00 0.07 0.07 67 1014.6
20260902223825 64 200 0.9 1.7 0.00 0.07 0.07 67 1014.6
20260902223320 64 227 3.5 5.2 0.00 0.07 0.07 67 1014.6
20260902222819 64 149 1.7 1.7 0.00 0.07 0.07 68 1014.2
20260902222318 64 237 1.7 2.6 0.00 0.07 0.07 67 1014.3
20260902221813 63 163 1.7 4.3 0.00 0.07 0.07 68 1014.4
20260902221312 63 51 2.6 2.6 0.00 0.07 0.07 69 1014.4
20260902220808 63 185 0.9 0.9 0.00 0.07 0.07 70 1014.3
20260902220307 62 199 0.9 0.9 0.00 0.07 0.07 71 1014.1
20260902215803 61 163 1.7 1.7 0.00 0.07 0.07 73 1013.9
20260902215258 60 122 0.9 1.7 0.00 0.07 0.07 78 1013.9
20260902214754 58 95 2.6 4.3 0.00 0.07 0.07 83 1013.9
20260902214253 56 228 2.6 4.3 0.00 0.07 0.07 89 1013.6
20260902213748 54 83 0.9 1.7 0.00 0.07 0.07 97 1013.9
20260902213249 53 229 2.6 4.3 0.00 0.07 0.07 99 1013.6
20260902212747 52 164 1.7 1.7 0.00 0.07 0.07 99 1013.6
20260902212244 52 259 0.0 0.9 0.00 0.07 0.07 99 1013.5
20260902211740 52 209 0.0 0.0 0.00 0.07 0.07 99 1013.7
20260902211236 52 218 0.0 0.9 0.00 0.07 0.07 99 1013.5
20260902210736 52 194 0.9 0.9 0.00 0.07 0.07 99 1013.2
20260902210231 52 249 0.9 0.9 0.00 0.07 0.07 99 1013.2
20260902205729 52 112 0.0 0.9 0.00 0.07 0.07 99 1012.9
20260902205224 51 298 0.0 0.9 0.00 0.07 0.07 99 1013.1
20260902204719 51 127 0.0 0.9 0.00 0.07 0.07 99 1012.8
20260902204215 51 207 0.9 0.9 0.00 0.07 0.07 99 1012.8
20260902203709 51 293 1.7 2.6 0.00 0.07 0.07 99 1013.0
20260902203204 51 250 0.9 0.9 0.00 0.07 0.07 99 1012.8
20260902202659 51 270 0.0 0.9 0.00 0.07 0.07 99 1013.0
20260902202155 51 304 0.0 0.9 0.00 0.07 0.07 99 1012.8
20260902201652 50 299 0.0 0.0 0.00 0.07 0.07 99 1012.8
20260902201150 50 287 0.0 0.0 0.00 0.07 0.07 99 1012.5
20260902200645 51 291 0.0 0.0 0.00 0.07 0.07 99 1012.7
20260902200141 51 297 0.0 0.0 0.00 0.07 0.07 99 1012.5
20260902195637 51 267 0.0 0.0 0.00 0.07 0.07 99 1012.1
20260902195136 51 291 0.0 0.0 0.00 0.07 0.07 99 1012.4
20260902194635 51 251 0.0 0.0 0.00 0.07 0.07 99 1012.5
20260902194130 51 288 0.0 0.0 0.00 0.07 0.07 99 1012.6
20260902193626 51 308 0.0 0.0 0.00 0.07 0.07 99 1012.6
20260902193121 51 355 0.0 0.9 0.00 0.07 0.07 99 1012.5
20260902192619 52 87 0.0 0.9 0.00 0.07 0.07 99 1012.4
20260902192118 52 350 1.7 1.7 0.00 0.07 0.07 99 1012.5
20260902191614 52 339 0.9 0.9 0.00 0.07 0.07 99 1012.5
20260902191108 52 13 0.9 0.9 0.00 0.07 0.07 99 1012.1
20260902190604 52 308 0.0 0.0 0.00 0.07 0.07 99 1012.5
20260902190059 52 357 0.9 0.9 0.05 0.07 0.07 99 1012.3
20260902185554 52 328 0.9 1.7 0.12 0.07 0.07 99 1012.4
20260902185050 52 329 0.0 0.9 0.07 0.06 0.06 99 1012.7
20260902184545 52 296 0.0 0.0 0.00 0.05 0.05 99 1012.7
20260902184040 52 253 0.0 0.0 0.00 0.05 0.05 99 1012.7
20260902183536 52 304 0.0 0.0 0.00 0.05 0.05 99 1012.3
20260902183033 52 354 1.7 1.7 0.00 0.05 0.05 99 1012.4
20260902182528 52 13 0.9 0.9 0.00 0.05 0.05 99 1012.1
20260902182025 53 322 0.9 1.7 0.00 0.05 0.05 99 1012.6
20260902181521 53 328 0.0 0.9 0.00 0.05 0.05 99 1012.9
20260902181015 53 308 0.0 0.0 0.00 0.05 0.05 99 1013.0
20260902180514 53 298 0.0 0.0 0.00 0.05 0.05 98 1013.1
20260902180011 53 311 0.0 0.0 0.00 0.05 0.05 98 1013.3
20260902175510 53 339 0.0 0.9 0.00 0.05 0.05 97 1012.8
20260902175007 54 325 0.0 0.9 0.05 0.05 0.05 96 1012.6
20260902174503 54 337 0.0 0.9 0.00 0.04 0.04 95 1013.1
20260902173958 55 315 0.0 0.0 0.07 0.04 0.04 93 1013.6
20260902173457 55 233 0.9 1.7 0.12 0.04 0.04 91 1014.7
20260902172953 55 200 0.9 1.7 0.12 0.03 0.03 90 1014.7
20260902172452 56 183 1.7 1.7 0.14 0.02 0.02 87 1014.7
20260902171947 57 234 2.6 2.6 0.00 0.00 0.00 85 1014.4
20260902171443 57 207 1.7 1.7 0.00 0.00 0.00 83 1014.4
20260902170938 57 194 1.7 1.7 0.00 0.00 0.00 82 1013.4
20260902170433 57 202 1.7 1.7 0.00 0.00 0.00 82 1013.2
20260902165929 57 228 0.9 0.9 0.00 0.00 0.00 82 1013.0
20260902165429 56 212 1.7 1.7 0.00 0.00 0.00 83 1012.9
20260902164929 55 277 0.0 0.0 0.00 0.00 0.00 84 1012.8
20260902164424 55 274 0.0 0.0 0.00 0.00 0.00 84 1012.7
20260902163923 56 286 0.0 0.0 0.00 0.00 0.00 84 1013.0
20260902163419 56 282 0.0 0.0 0.00 0.00 0.00 83 1013.0
20260902162916 56 282 0.0 0.0 0.00 0.00 0.00 82 1013.1
20260902162412 56 302 0.0 0.0 0.00 0.00 0.00 82 1013.3
20260902161912 57 285 0.0 0.0 0.00 0.00 0.00 82 1013.6
20260902161407 57 292 0.0 0.0 0.00 0.00 0.00 81 1013.9
20260902160903 57 319 0.0 0.9 0.00 0.00 0.00 81 1013.7
20260902160358 57 358 1.7 1.7 0.00 0.00 0.00 82 1014.0
20260902155856 57 311 0.0 0.0 0.00 0.00 0.00 82 1014.1
20260902155356 56 306 0.9 0.9 0.00 0.00 0.00 83 1014.3
20260902154850 56 342 0.0 0.9 0.00 0.00 0.00 85 1014.4
20260902154346 56 307 0.0 0.0 0.00 0.00 0.00 85 1014.3
20260902153845 56 306 0.0 0.0 0.00 0.00 0.00 84 1014.6
20260902153344 56 297 0.0 0.0 0.00 0.00 0.00 84 1014.8
20260902152840 57 290 0.0 0.0 0.00 0.00 0.00 84 1014.6
20260902152336 57 303 0.9 0.9 0.00 0.00 0.00 84 1014.8
20260902151831 57 301 0.0 0.0 0.00 0.00 0.00 83 1015.1
20260902151326 57 289 0.0 0.0 0.00 0.00 0.00 83 1014.9
20260902150821 57 328 3.5 4.3 0.00 0.00 0.00 83 1015.1
20260902150318 57 4 0.9 0.9 0.00 0.00 0.00 83 1015.2
20260902145817 57 358 0.9 0.9 0.00 0.00 0.00 84 1015.2
20260902145312 57 329 0.0 0.0 0.00 0.00 0.00 84 1015.2
20260902144808 57 340 0.0 0.9 0.00 0.00 0.00 84 1015.5
20260902144303 57 342 0.9 1.7 0.00 0.00 0.00 83 1015.5
20260902143758 58 16 0.9 1.7 0.00 0.00 0.00 83 1015.3
20260902143253 58 20 0.9 0.9 0.00 0.00 0.00 83 1015.3
20260902142749 58 313 1.7 1.7 0.00 0.00 0.00 82 1015.8
20260902142245 58 6 0.0 0.9 0.00 0.00 0.00 82 1016.1
20260902141744 58 331 0.9 1.7 0.00 0.00 0.00 83 1015.9
20260902141241 57 282 0.9 0.9 0.00 0.00 0.00 83 1015.8
20260902140741 57 350 0.9 0.9 0.00 0.00 0.00 84 1016.1
20260902140236 57 5 0.9 1.7 0.00 0.00 0.00 84 1015.8
20260902135735 57 6 0.9 0.9 0.00 0.00 0.00 85 1015.8
20260902135231 56 274 0.0 0.9 0.00 0.00 0.00 86 1016.0
20260902134730 56 327 0.0 0.9 0.00 0.00 0.00 86 1016.0
20260902134226 57 340 0.9 0.9 0.00 0.00 0.00 86 1016.1
20260902133721 57 329 0.0 0.9 0.00 0.00 0.00 86 1016.3
20260902133220 56 296 1.7 2.6 0.00 0.00 0.00 86 1016.4
20260902132715 56 348 0.0 0.9 0.00 0.00 0.00 87 1016.8
20260902132211 55 229 0.0 0.9 0.00 0.00 0.00 88 1017.2
20260902131706 54 102 0.9 0.9 0.00 0.00 0.00 90 1017.0
20260902131202 53 289 0.0 0.0 0.00 0.00 0.00 89 1017.1
20260902130657 53 303 0.0 0.0 0.00 0.00 0.00 88 1017.2
20260902130153 52 275 0.0 0.0 0.00 0.00 0.00 88 1017.2
20260902125648 52 288 0.0 0.0 0.00 0.00 0.00 88 1017.0
20260902125144 52 288 0.0 0.0 0.00 0.00 0.00 88 1016.8
20260902124640 52 287 0.0 0.0 0.00 0.00 0.00 88 1017.0
20260902124140 52 277 0.0 0.0 0.00 0.00 0.00 88 1017.1
20260902123636 52 283 0.0 0.0 0.00 0.00 0.00 88 1016.7
20260902123137 52 285 0.0 0.0 0.00 0.00 0.00 88 1016.8
20260902122631 51 281 0.0 0.0 0.00 0.00 0.00 88 1017.1
20260902122126 51 269 0.0 0.0 0.00 0.00 0.00 88 1017.0
20260902121621 51 290 0.0 0.0 0.00 0.00 0.00 88 1017.0
20260902121115 51 295 0.0 0.0 0.00 0.00 0.00 88 1017.0
20260902120612 51 286 0.0 0.0 0.00 0.00 0.00 88 1017.3
20260902120108 51 298 0.0 0.0 0.00 0.00 0.00 88 1017.3
20260902115603 51 291 0.0 0.0 0.00 0.00 0.00 88 1017.1
20260902115059 51 305 0.0 0.0 0.00 0.00 0.00 88 1017.3
20260902114555 51 261 0.0 0.9 0.00 0.00 0.00 88 1017.2
20260902114054 51 247 0.0 0.0 0.00 0.00 0.00 87 1017.2
20260902113550 51 256 0.0 0.9 0.00 0.00 0.00 87 1017.1
20260902113045 51 236 0.0 0.9 0.00 0.00 0.00 87 1017.0
20260902112540 51 235 0.0 0.9 0.00 0.00 0.00 86 1017.0
20260902112037 51 247 0.0 0.9 0.00 0.00 0.00 86 1016.8
20260902111533 51 259 0.0 0.0 0.00 0.00 0.00 86 1017.3
20260902111028 52 272 0.0 0.0 0.00 0.00 0.00 85 1017.0
20260902110524 52 248 0.9 0.9 0.00 0.00 0.00 86 1016.8
20260902110019 52 260 0.0 0.9 0.00 0.00 0.00 85 1017.0
20260902105514 52 269 0.0 0.0 0.00 0.00 0.00 84 1016.6
20260902105014 52 278 0.0 0.0 0.00 0.00 0.00 84 1016.7
20260902104510 52 285 0.0 0.0 0.00 0.00 0.00 83 1017.0
20260902104004 52 286 0.0 0.0 0.00 0.00 0.00 83 1017.0
20260902103459 52 253 0.0 0.0 0.00 0.00 0.00 83 1017.0
20260902102954 53 294 0.0 0.0 0.00 0.00 0.00 82 1016.8
20260902102451 53 292 0.0 0.0 0.00 0.00 0.00 81 1017.2
20260902101947 53 282 0.0 0.0 0.00 0.00 0.00 80 1017.0
20260902101442 54 278 0.0 0.0 0.00 0.00 0.00 79 1017.2
20260902100941 54 269 0.0 0.0 0.00 0.00 0.00 80 1017.2
20260902100436 54 257 0.0 0.0 0.00 0.00 0.00 79 1017.2
20260902095936 54 282 0.0 0.0 0.00 0.00 0.00 77 1016.8
20260902095431 55 280 0.0 0.0 0.00 0.00 0.00 77 1017.3
20260902094930 55 274 0.0 0.0 0.00 0.00 0.00 76 1017.0
20260902094426 56 269 0.0 0.0 0.00 0.00 0.00 75 1017.0
20260902093920 56 247 0.0 0.9 0.00 0.00 0.00 75 1016.8
20260902093415 57 258 0.0 0.0 0.00 0.00 0.00 74 1016.7
20260902092914 57 274 0.0 0.0 0.00 0.00 0.00 72 1016.6
20260902092410 57 275 0.0 0.0 0.00 0.00 0.00 72 1016.7
20260902091910 58 242 0.0 0.9 0.00 0.00 0.00 72 1017.0
20260902091406 58 272 0.0 0.0 0.00 0.00 0.00 71 1016.7
20260902090903 59 304 0.0 0.0 0.00 0.00 0.00 70 1016.6
20260902090402 59 15 0.0 0.0 0.00 0.00 0.00 69 1016.8
20260902085901 59 256 0.0 0.0 0.00 0.00 0.00 68 1016.6
20260902085356 60 288 0.0 0.0 0.00 0.00 0.00 67 1016.5
20260902084852 60 299 0.0 0.9 0.00 0.00 0.00 67 1016.6
20260902084348 60 312 0.0 0.0 0.00 0.00 0.00 67 1016.7
20260902083843 60 11 0.0 0.9 0.00 0.00 0.00 67 1016.6
20260902083343 60 221 0.0 0.0 0.00 0.00 0.00 65 1017.1
20260902082838 60 261 0.0 0.0 0.00 0.00 0.00 64 1017.0
20260902082334 61 273 0.0 0.0 0.00 0.00 0.00 63 1016.8
20260902081830 61 256 0.0 0.0 0.00 0.00 0.00 62 1017.0
20260902081326 62 253 0.9 0.9 0.00 0.00 0.00 62 1016.6
20260902080821 62 269 0.0 0.0 0.00 0.00 0.00 60 1017.1
20260902080318 63 223 0.0 0.0 0.00 0.00 0.00 59 1017.0
20260902075817 63 173 0.9 1.7 0.00 0.00 0.00 59 1017.0
20260902075313 64 273 0.0 0.9 0.00 0.00 0.00 58 1017.0
20260902074808 64 233 0.9 0.9 0.00 0.00 0.00 57 1016.8
20260902074303 65 129 0.9 0.9 0.00 0.00 0.00 56 1016.5
20260902073758 65 255 0.9 0.9 0.00 0.00 0.00 55 1016.4
20260902073254 66 205 1.7 2.6 0.00 0.00 0.00 55 1016.5
20260902072750 66 125 0.0 0.9 0.00 0.00 0.00 54 1016.6